San Antonio, TX

6:26 AM CDT on May 29, 2017 (GMT -0500)
San Antonio International

Weather History for KSAT - February, 2013

Change the Weather History Date:

Tuesday, February 26, 2013

  Actual Average Record
Temperature  
Mean Temperature 53 °F 58 °F  
Max Temperature 66 °F 69 °F 91 °F (1954)
Min Temperature 40 °F 47 °F 22 °F (1974)
Degree Days  
Heating Degree Days 12 8  
Month to date heating degree days 149 267  
Since 1 July heating degree days 970 1285  
Cooling Degree Days 0 1  
Month to date cooling degree days 13 22  
Year to date cooling degree days 40 29  
Growing Degree Days 2 (Base 50)    
Moisture  
Dew Point 25 °F    
Average Humidity 37    
Maximum Humidity 55    
Minimum Humidity 19    
Precipitation  
Precipitation 0.00 in 0.06 in 2.27 in (1903)
Month to date precipitation 0.10 1.64  
Year to date precipitation 2.93 3.40  
Snow  
Snow 0.00 in - - ()
Month to date snowfall 0.0  
Since 1 July snowfall T  
Snow Depth 0.00 in    
Sea Level Pressure  
Sea Level Pressure 29.88 in    
Wind  
Wind Speed 8 mph (West)    
Max Wind Speed 17 mph    
Max Gust Speed 23 mph    
Visibility 10 miles    
Events      
T = Trace of Precipitation, MM = Missing Value Source: NWS Daily Summary

Daily Weather History Graph

Daily Weather History Graph

Search for Another Location

Airport or City:

Trip Planner

Search our weather history database for the weather conditions in past years. The results will help you decide how hot, cold, wet, or windy it might be!

Date:

Astronomy

Feb. 26, 2013 Rise Set
Actual Time 7:02 AM CST 6:31 PM CST
Civil Twilight 6:38 AM CST 6:55 PM CST
Nautical Twilight 6:10 AM CST 7:23 PM CST
Astronomical Twilight 5:43 AM CST 7:50 PM CST
Moon 7:39 PM CST (2/26) 7:13 AM CST (2/26)
Length of Visible Light 12h 17m
Length of Day
11h 29m
Full, 99% of the Moon is Illuminated
Feb 26
Full
Mar 4
Last Quarter
Mar 11
New
Mar 19
First Quarter
Mar 27
Full

Hourly Weather History & Observations

Time (CST) Temp. Windchill Dew Point Humidity Pressure Visibility Wind Dir Wind Speed Gust Speed Precip Events Conditions
12:51 AM 46.0 °F 39.6 °F 27.0 °F 47% 29.86 in 10.0 mi WNW 15.0 mph 21.9 mph N/A   Clear
1:51 AM 45.0 °F 40.6 °F 27.0 °F 49% 29.87 in 10.0 mi WNW 8.1 mph - N/A   Clear
2:51 AM 43.0 °F 37.2 °F 27.0 °F 53% 29.86 in 10.0 mi NW 10.4 mph - N/A   Clear
3:51 AM 42.1 °F 36.1 °F 27.0 °F 55% 29.88 in 10.0 mi WNW 10.4 mph - N/A   Clear
4:51 AM 42.1 °F 34.9 °F 27.0 °F 55% 29.86 in 10.0 mi NW 13.8 mph 21.9 mph N/A   Clear
5:51 AM 41.0 °F 34.3 °F 26.1 °F 55% 29.88 in 10.0 mi NW 11.5 mph - N/A   Clear
6:51 AM 41.0 °F 35.2 °F 26.1 °F 55% 29.92 in 10.0 mi NW 9.2 mph - N/A   Clear
7:51 AM 43.0 °F 37.7 °F 26.1 °F 51% 29.93 in 10.0 mi NW 9.2 mph - N/A   Clear
8:51 AM 48.0 °F - 26.1 °F 42% 29.94 in 10.0 mi North 12.7 mph - N/A   Partly Cloudy
9:51 AM 52.0 °F - 25.0 °F 35% 29.94 in 10.0 mi NNW 5.8 mph - N/A   Scattered Clouds
10:51 AM 57.0 °F - 25.0 °F 29% 29.94 in 10.0 mi NNW 4.6 mph - N/A   Mostly Cloudy
11:51 AM 61.0 °F - 25.0 °F 25% 29.92 in 10.0 mi West 8.1 mph - N/A   Mostly Cloudy
12:51 PM 63.0 °F - 24.1 °F 23% 29.89 in 10.0 mi SSW 5.8 mph - N/A   Mostly Cloudy
1:51 PM 64.0 °F - 23.0 °F 21% 29.86 in 10.0 mi SW 6.9 mph 16.1 mph N/A   Mostly Cloudy
2:51 PM 66.0 °F - 23.0 °F 20% 29.84 in 10.0 mi SW 11.5 mph 18.4 mph N/A   Mostly Cloudy
3:51 PM 64.9 °F - 23.0 °F 20% 29.83 in 10.0 mi SSW 12.7 mph - N/A   Mostly Cloudy
4:51 PM 64.9 °F - 21.0 °F 19% 29.83 in 10.0 mi South 9.2 mph - N/A   Mostly Cloudy
5:51 PM 63.0 °F - 21.9 °F 21% 29.84 in 10.0 mi South 8.1 mph - N/A   Mostly Cloudy
6:51 PM 62.1 °F - 21.9 °F 21% 29.84 in 10.0 mi SSW 5.8 mph - N/A   Mostly Cloudy
7:51 PM 59.0 °F - 23.0 °F 25% 29.85 in 10.0 mi South 5.8 mph - N/A   Mostly Cloudy
8:51 PM 59.0 °F - 21.9 °F 24% 29.85 in 10.0 mi SSW 3.5 mph - N/A   Mostly Cloudy
9:51 PM 57.0 °F - 23.0 °F 27% 29.86 in 10.0 mi South 5.8 mph - N/A   Mostly Cloudy
10:51 PM 51.1 °F - 26.1 °F 38% 29.86 in 10.0 mi Calm Calm - N/A   Mostly Cloudy
11:51 PM 46.9 °F - 28.9 °F 50% 29.86 in 10.0 mi ESE 3.5 mph - N/A   Mostly Cloudy